MSG 4 DEB (BAFFLE COVER), 40990

Orbit data source: Space-Track

MSG 4 DEB (BAFFLE COVER), 40990 is space debris in GEO originally from a launch on Wed, 15 Jul 2015 UTC launched from the French Guiana (FRGUI). Debris objects in space refer to the collection of defunct objects orbiting the Earth. Examples of debris include non-operational satellites, rocket bodies, and fragments generated from explosions, collisions, or faulty payload assembly.

Not visible in the next 10 days
MSG 4 DEB (BAFFLE COVER) details
Identifier
40990, 2015-034F
Orbit
GEO
Last TLE update2 weeks ago
Origin
Flag of DEEUMETSAT (DE / EUME)
ManufacturerSENER
MissionSpacecraft
Bus & MotorMSG COVER, Unknown motor
Mass~0 kg wet, ~10 kg dry
Launch date (UTC)
2015-07-15 (9 years ago)
Launch vehicleUnknown
Launch site
French Guiana (FRGUI)
Object type
Payload
Rocket body
Debris
Shape & HBRBox, 1.25 m
Radar Cross Section0.435 m²

Expand to show TLE details & history

TLE from 2 weeks ago
0 MSG 4 DEB (BAFFLE COVER)
1 40990U 15034F   24349.31899423 -.00000238  00000-0  00000-0 0  9990
2 40990   5.6355  88.0517 0102825 174.9640 184.8587  1.02656799 35257
Epoch: 2024-12-14T07:39Z
Definitive object data (Epoch: 2024-12-14T07:39:21.101Z)
Latitude-0.00001°
Longitude-110.53571°
Altitude35,557.969 km
Speed3.067 km/s
True Right ascension05h 51m 05s
True Declination0° 00' 00"
Sunlit
Object was in daylight at TLE epoch
Visualization TLE readout
Latitude2.89448°
Longitude38.722°
Altitude34,745.946 km
Speed3.128 km/s
Apparent Right ascension16h 14m 37s
Apparent Declination-2° 43' 07"
Sunlit
Object is in daylight
Visualization observer readout
Local Sidereal Time09:15:49
Azimuth82.554° E
Elevation-12.994°
Doppler factor1
Orbital elements
Apogee altitude35,558.867 km
Perigee altitude34,705.21 km
Semi-major axis41,510.176 km
Eccentricity0.0102825
Inclination5.6355°
RAAN88.0517°
Arg. of periapsis174.964°
True anomaly184.76016°
Mean anomaly184.8587°
Eccentric anomaly184.80931°
Mean motion0.25663 °/min
BSTARUnknown
Orbital period1402.79 mins
Loading historical data...
40990 neighbors
Authenticating...
Loading maneuver chart data...
Loading historical data...
Loading historical data...
Loading historical data...
Loading historical data...
Loading historical data...
Loading historical data...
Loading historical data...

MSG 4 DEB (BAFFLE COVER) Visibility forecast

Observer location: undefined°, undefined

MSG 4 DEB (BAFFLE COVER) is not visible in the next 10 days
Span
Click to sort rows by Start time (UTC) header in descending order
Start Az.
Max El. time (UTC)
Max El. Az.
Max El.
End time (UTC)
End Az.
|